User: anonymous   Login
Location: Unspecified
(0.0000°N, 0.0000°E)
Time: 04:33:18
(UTC+02:00)
Language:

Cosmos 1515 Rocket - Orbit

View from above orbital plane
View from above orbital plane
View from above satellite
View from above satellite

Ground track
Ground track

The orbit data is extracted from the following two-line orbital elements,

1 14552U 83122B   15242.31791675  .00000212  00000-0  22981-4 0  9997
2 14552 082.5273 331.4918 0017817 160.2423 199.9486 14.83224233711802
Epoch (UTC): 30 August 2015 07:37:48
Eccentricity: 0.0017817
inclination: 82.5273°
perigee height: 607 km
apogee height: 631 km
right ascension of ascending node: 331.4918°
argument of perigee: 160.2423°
revolutions per day: 14.83224233
mean anomaly at epoch: 199.9486°
orbit number at epoch: 71180

The dashed part of the orbit path shows where the satellite is in the earth's shadow,  

DLR